User: anonymous   Login
Location: Unspecified
(0.0000°N, 0.0000°E)
Time: 13:36:03
(UTC+00:00)
Language:

Transit 2A Rocket - Orbit

View from above orbital plane
View from above orbital plane
View from above satellite
View from above satellite

Ground track
Ground track

The orbit data is extracted from the following two-line orbital elements,

1    47U 60007C   23272.18559120  .00000648  00000-0  16824-3 0  9993
2    47  66.6659 188.3515 0221207 147.6913 213.7966 14.43029643307995
Epoch (UTC): 29 September 2023 04:27:15
Eccentricity: 0.0221207
inclination: 66.6659°
perigee height: 591 km
apogee height: 906 km
right ascension of ascending node: 188.3515°
argument of perigee: 147.6913°
revolutions per day: 14.43029643
mean anomaly at epoch: 213.7966°
orbit number at epoch: 30799

The dashed part of the orbit path shows where the satellite is in the earth's shadow,  

DLR